User: anonymous   Login
Location: Campillo
(40.8621°N, 4.2488°W)
Time: 23:56:13
(UTC+00:00)
Language:

CZ-2C R/B - Orbit

View from above orbital plane
View from above orbital plane
View from above satellite
View from above satellite

Ground track
Ground track

The orbit data is extracted from the following two-line orbital elements,

1 37766U 11039B   21213.39164474  .00000065  00000-0  20963-4 0  9995
2 37766  98.3277  79.9950 0045616 174.2444 185.9293 14.66586400535509
Epoch (UTC): 01 August 2021 09:23:58
Eccentricity: 0.0045616
inclination: 98.3277°
perigee height: 640 km
apogee height: 704 km
right ascension of ascending node: 79.9950°
argument of perigee: 174.2444°
revolutions per day: 14.66586400
mean anomaly at epoch: 185.9293°
orbit number at epoch: 53550

The dashed part of the orbit path shows where the satellite is in the earth's shadow,  

DLR